Weather History for KBLF - July, 2013

Change the Weather History Date:

Sunday, July 7, 2013

  Actual Average Record
Temperature  
Mean Temperature 74 °F 73 °F  
Max Temperature 81 °F 81 °F 93 °F (2012)
Min Temperature 67 °F 65 °F 48 °F (1983)
Degree Days  
Heating Degree Days 0 0  
Month to date heating degree days 0 0  
Since 1 June heating degree days 0 22  
Since 1 July heating degree days 0 0  
Cooling Degree Days 9 8  
Month to date cooling degree days 63 56  
Year to date cooling degree days 368 313  
Since 1 June cooling degree days 254 222  
Growing Degree Days 23 (Base 50)    
Moisture  
Dew Point 64 °F    
Average Humidity 71    
Maximum Humidity 84    
Minimum Humidity 58    
Precipitation  
Precipitation 0.23 in 0.14 in 2.27 in (2005)
Month to date precipitation 1.26 0.96  
Year to date precipitation 24.62 21.92  
Snow  
Snow 0.00 in - - ()
Month to date snowfall 0.0  
Since 1 June snowfall 0.0  
Since 1 July snowfall 0.0  
Snow Depth 0.00 in    
Sea Level Pressure  
Sea Level Pressure 30.18 in    
Wind  
Wind Speed 4 mph (WSW)    
Max Wind Speed 20 mph    
Max Gust Speed 28 mph    
Visibility 8 miles    
Events Fog , Rain , Thunderstorm    
T = Trace of Precipitation, MM = Missing Value Source: NWS Daily Summary

Daily Weather History Graph

Daily Weather History Graph

Search for Another Location

Airport or City:

Trip Planner

Search our weather history database for the weather conditions in past years. The results will help you decide how hot, cold, wet, or windy it might be!

Date:

Astronomy

Jul. 07, 2013 Rise Set
Actual Time 6:11 AM EDT 8:48 PM EDT
Civil Twilight 5:40 AM EDT 9:18 PM EDT
Nautical Twilight 5:02 AM EDT 9:56 PM EDT
Astronomical Twilight 4:19 AM EDT 10:39 PM EDT
Moon 5:44 AM EDT (7/7) 8:12 PM EDT (7/7)
Length of Visible Light 15h 38m
Length of Day
14h 36m
Waning Crescent, 0% of the Moon is Illuminated
Jul 7
Waning Crescent
Jul 8
New
Jul 15
First Quarter
Jul 22
Full
Jul 29
Last Quarter

Hourly Weather History & Observations

Time (EDT) Temp. Heat Index Dew Point Humidity Pressure Visibility Wind Dir Wind Speed Gust Speed Precip Events Conditions
12:02 AM 71.6 °F - 66.2 °F 83% 30.29 in 10.0 mi WSW 3.5 mph - N/A   Overcast
12:52 AM 71.1 °F - 66.0 °F 84% 30.15 in 10.0 mi Calm Calm - N/A   Mostly Cloudy
1:19 AM 71.6 °F - 66.2 °F 83% 30.27 in 10.0 mi Calm Calm - N/A   Scattered Clouds
1:27 AM 71.6 °F - 66.2 °F 83% 30.27 in 10.0 mi Calm Calm - N/A   Mostly Cloudy
1:37 AM 71.6 °F - 66.2 °F 83% 30.27 in 10.0 mi Calm Calm - N/A   Mostly Cloudy
1:52 AM 71.1 °F - 66.0 °F 84% 30.14 in 6.0 mi Calm Calm - 0.02 in Rain Light Rain
1:59 AM 69.8 °F - 66.2 °F 88% 30.26 in 3.0 mi Calm Calm - 0.05 in Rain Heavy Rain
2:13 AM 69.8 °F - 66.2 °F 88% 30.26 in 8.0 mi Calm Calm - 0.06 in Rain Light Rain
2:44 AM 69.8 °F - 66.2 °F 88% 30.24 in 2.5 mi Calm Calm - 0.07 in   Overcast
2:47 AM 69.8 °F - 66.2 °F 88% 30.24 in 3.0 mi Calm Calm - 0.07 in   Mostly Cloudy
2:52 AM 69.1 °F - 64.9 °F 87% 30.12 in 1.5 mi ESE 3.5 mph - 0.07 in   Mostly Cloudy
2:54 AM 69.8 °F - 64.4 °F 83% 30.24 in 0.8 mi Calm Calm - 0.00 in Rain Light Rain
3:07 AM 69.8 °F - 64.4 °F 83% 30.23 in 0.5 mi Calm Calm - 0.01 in Fog , Rain Light Rain
3:23 AM 69.8 °F - 64.4 °F 83% 30.24 in 0.5 mi SSE 3.5 mph - 0.01 in Fog Fog
3:45 AM 69.8 °F - 64.4 °F 83% 30.23 in 0.5 mi Calm Calm - 0.01 in Fog Fog
3:52 AM 69.1 °F - 64.9 °F 87% 30.11 in 1.2 mi Calm Calm - 0.01 in   Mostly Cloudy
3:55 AM 69.8 °F - 64.4 °F 83% 30.23 in 5.0 mi Calm Calm - N/A   Mostly Cloudy
4:07 AM 69.8 °F - 64.4 °F 83% 30.23 in 10.0 mi Calm Calm - N/A   Scattered Clouds
4:25 AM 69.8 °F - 64.4 °F 83% 30.21 in 2.5 mi Calm Calm - N/A   Haze
4:34 AM 69.8 °F - 64.4 °F 83% 30.21 in 10.0 mi Calm Calm - N/A   Partly Cloudy
4:52 AM 69.1 °F - 64.0 °F 84% 30.09 in 10.0 mi Calm Calm - N/A   Clear
5:13 AM 69.8 °F - 64.4 °F 83% 30.22 in 2.5 mi Calm Calm - N/A   Haze
5:26 AM 69.8 °F - 64.4 °F 83% 30.23 in 10.0 mi South 5.8 mph - N/A   Mostly Cloudy
5:52 AM 70.0 °F - 64.0 °F 81% 30.10 in 10.0 mi Variable 4.6 mph - N/A   Scattered Clouds
6:52 AM 70.0 °F - 64.0 °F 81% 30.10 in 7.0 mi SSE 4.6 mph - N/A   Mostly Cloudy
7:52 AM 72.0 °F - 64.0 °F 76% 30.11 in 10.0 mi Calm Calm - N/A   Mostly Cloudy
8:52 AM 73.0 °F - 64.9 °F 76% 30.12 in 10.0 mi SSW 3.5 mph - N/A   Overcast
9:52 AM 75.0 °F - 64.9 °F 71% 30.12 in 10.0 mi South 4.6 mph - N/A   Overcast
10:52 AM 77.0 °F - 66.0 °F 69% 30.12 in 10.0 mi Variable 4.6 mph - N/A   Mostly Cloudy
11:52 AM 78.1 °F - 64.9 °F 64% 30.12 in 10.0 mi SW 4.6 mph - N/A   Overcast
12:40 PM 80.6 °F 82.3 °F 64.4 °F 58% 30.23 in 10.0 mi WSW 8.1 mph - N/A   Overcast
12:52 PM 80.1 °F 81.9 °F 64.9 °F 60% 30.11 in 10.0 mi West 10.4 mph - N/A   Overcast
1:43 PM 68.0 °F - 60.8 °F 78% 30.26 in 7.0 mi West 9.2 mph 19.6 mph 0.02 in Rain Rain
1:52 PM 68.0 °F - 61.0 °F 78% 30.15 in 10.0 mi West 8.1 mph - 0.03 in Rain , Thunderstorm Light Rain
2:08 PM 68.0 °F - 62.6 °F 83% 30.25 in 10.0 mi West 8.1 mph - 0.00 in Rain Light Rain
2:26 PM 66.2 °F - 62.6 °F 88% 30.23 in 2.5 mi WSW 9.2 mph - 0.08 in Rain Rain
2:34 PM 66.2 °F - 62.6 °F 88% 30.22 in 6.0 mi West 6.9 mph - 0.09 in Rain Light Rain
2:52 PM 71.1 °F - 63.0 °F 75% 30.12 in 10.0 mi WSW 8.1 mph - 0.10 in   Mostly Cloudy
3:52 PM 72.0 °F - 63.0 °F 73% 30.11 in 10.0 mi West 6.9 mph - N/A   Clear
4:52 PM 73.0 °F - 64.0 °F 73% 30.10 in 10.0 mi WNW 4.6 mph - 0.00 in   Partly Cloudy
5:20 PM 71.6 °F - 64.4 °F 78% 30.21 in 10.0 mi West 3.5 mph - N/A   Mostly Cloudy
5:28 PM 73.4 °F - 64.4 °F 73% 30.20 in 10.0 mi WSW 6.9 mph - N/A   Scattered Clouds
5:52 PM 72.0 °F - 64.0 °F 76% 30.10 in 10.0 mi West 4.6 mph - N/A   Scattered Clouds
6:27 PM 71.6 °F - 62.6 °F 73% 30.20 in 10.0 mi Calm Calm - N/A   Overcast
6:52 PM 72.0 °F - 64.0 °F 76% 30.10 in 10.0 mi SW 3.5 mph - N/A   Mostly Cloudy
7:10 PM 71.6 °F - 64.4 °F 78% 30.21 in 10.0 mi WSW 4.6 mph - N/A   Mostly Cloudy
7:52 PM 73.0 °F - 64.0 °F 73% 30.09 in 10.0 mi WSW 3.5 mph - N/A   Scattered Clouds
8:52 PM 71.1 °F - 64.0 °F 78% 30.11 in 10.0 mi Calm Calm - N/A   Mostly Cloudy
9:52 PM 70.0 °F - 64.0 °F 81% 30.13 in 10.0 mi Calm Calm - N/A   Mostly Cloudy
10:52 PM 70.0 °F - 64.0 °F 81% 30.13 in 10.0 mi WSW 5.8 mph - N/A   Overcast
11:52 PM 68.0 °F - 63.0 °F 84% 30.13 in 10.0 mi WSW 3.5 mph - N/A   Partly Cloudy